Year,Month,Day,Hour,Minute,Value (Times are PST for insolation in W/m^2)
2016,07,06,00,00,0.00
2016,07,06,00,01,0.00
2016,07,06,00,02,0.00
2016,07,06,00,03,0.00
2016,07,06,00,04,0.00
2016,07,06,00,05,0.00
2016,07,06,00,06,0.00
2016,07,06,00,07,0.00
2016,07,06,00,08,0.00
2016,07,06,00,09,0.00
2016,07,06,00,10,0.00
2016,07,06,00,11,0.00
2016,07,06,00,12,0.00
2016,07,06,00,13,0.00
2016,07,06,00,14,0.00
2016,07,06,00,15,0.00
2016,07,06,00,16,0.00
2016,07,06,00,17,0.00
2016,07,06,00,18,0.00
2016,07,06,00,19,0.00
2016,07,06,00,20,0.00
2016,07,06,00,21,0.00
2016,07,06,00,22,0.00
2016,07,06,00,23,0.00
2016,07,06,00,24,0.00
2016,07,06,00,25,0.00
2016,07,06,00,26,0.00
2016,07,06,00,27,0.00
2016,07,06,00,28,0.00
2016,07,06,00,29,0.00
2016,07,06,00,30,0.00
2016,07,06,00,31,0.00
2016,07,06,00,32,0.00
2016,07,06,00,33,0.00
2016,07,06,00,34,0.00
2016,07,06,00,35,0.00
2016,07,06,00,36,0.00
2016,07,06,00,37,0.00
2016,07,06,00,38,0.00
2016,07,06,00,39,0.00
2016,07,06,00,40,0.00
2016,07,06,00,41,0.00
2016,07,06,00,42,0.00
2016,07,06,00,43,0.00
2016,07,06,00,44,0.00
2016,07,06,00,45,0.00
2016,07,06,00,46,0.00
2016,07,06,00,47,0.00
2016,07,06,00,48,0.00
2016,07,06,00,49,0.00
2016,07,06,00,50,0.00
2016,07,06,00,51,0.00
2016,07,06,00,52,0.00
2016,07,06,00,53,0.00
2016,07,06,00,54,0.00
2016,07,06,00,55,0.00
2016,07,06,00,56,0.00
2016,07,06,00,57,0.00
2016,07,06,00,58,0.00
2016,07,06,00,59,0.00
2016,07,06,01,00,0.00
2016,07,06,01,01,0.00
2016,07,06,01,02,0.00
2016,07,06,01,03,0.00
2016,07,06,01,04,0.00
2016,07,06,01,05,0.00
2016,07,06,01,06,0.00
2016,07,06,01,07,0.00
2016,07,06,01,08,0.00
2016,07,06,01,09,0.00
2016,07,06,01,10,0.00
2016,07,06,01,11,0.00
2016,07,06,01,12,0.00
2016,07,06,01,13,0.00
2016,07,06,01,14,0.00
2016,07,06,01,15,0.00
2016,07,06,01,16,0.00
2016,07,06,01,17,0.00
2016,07,06,01,18,0.00
2016,07,06,01,19,0.00
2016,07,06,01,20,0.00
2016,07,06,01,21,0.00
2016,07,06,01,22,0.00
2016,07,06,01,23,0.00
2016,07,06,01,24,0.00
2016,07,06,01,25,0.00
2016,07,06,01,26,0.00
2016,07,06,01,27,0.00
2016,07,06,01,28,0.00
2016,07,06,01,29,0.00
2016,07,06,01,30,0.00
2016,07,06,01,31,0.00
2016,07,06,01,32,0.00
2016,07,06,01,33,0.00
2016,07,06,01,34,0.00
2016,07,06,01,35,0.00
2016,07,06,01,36,0.00
2016,07,06,01,37,0.00
2016,07,06,01,38,0.00
2016,07,06,01,39,0.00
2016,07,06,01,40,0.00
2016,07,06,01,41,0.00
2016,07,06,01,42,0.00
2016,07,06,01,43,0.00
2016,07,06,01,44,0.00
2016,07,06,01,45,0.00
2016,07,06,01,46,0.00
2016,07,06,01,47,0.00
2016,07,06,01,48,0.00
2016,07,06,01,49,0.00
2016,07,06,01,50,0.00
2016,07,06,01,51,0.00
2016,07,06,01,52,0.00
2016,07,06,01,53,0.00
2016,07,06,01,54,0.00
2016,07,06,01,55,0.00
2016,07,06,01,56,0.00
2016,07,06,01,57,0.00
2016,07,06,01,58,0.00
2016,07,06,01,59,0.00
2016,07,06,02,00,0.00
2016,07,06,02,01,0.00
2016,07,06,02,02,0.00
2016,07,06,02,03,0.00
2016,07,06,02,04,0.00
2016,07,06,02,05,0.00
2016,07,06,02,06,0.00
2016,07,06,02,07,0.00
2016,07,06,02,08,0.00
2016,07,06,02,09,0.00
2016,07,06,02,10,0.00
2016,07,06,02,11,0.00
2016,07,06,02,12,0.00
2016,07,06,02,13,0.00
2016,07,06,02,14,0.00
2016,07,06,02,15,0.00
2016,07,06,02,16,0.00
2016,07,06,02,17,0.00
2016,07,06,02,18,0.00
2016,07,06,02,19,0.00
2016,07,06,02,20,0.00
2016,07,06,02,21,0.00
2016,07,06,02,22,0.00
2016,07,06,02,23,0.00
2016,07,06,02,24,0.00
2016,07,06,02,25,0.00
2016,07,06,02,26,0.00
2016,07,06,02,27,0.00
2016,07,06,02,28,0.00
2016,07,06,02,29,0.00
2016,07,06,02,30,0.00
2016,07,06,02,31,0.00
2016,07,06,02,32,0.00
2016,07,06,02,33,0.00
2016,07,06,02,34,0.00
2016,07,06,02,35,0.00
2016,07,06,02,36,0.00
2016,07,06,02,37,0.00
2016,07,06,02,38,0.00
2016,07,06,02,39,0.00
2016,07,06,02,40,0.00
2016,07,06,02,41,0.00
2016,07,06,02,42,0.00
2016,07,06,02,43,0.00
2016,07,06,02,44,0.00
2016,07,06,02,45,0.00
2016,07,06,02,46,0.00
2016,07,06,02,47,0.00
2016,07,06,02,48,0.00
2016,07,06,02,49,0.00
2016,07,06,02,50,0.00
2016,07,06,02,51,0.00
2016,07,06,02,52,0.00
2016,07,06,02,53,0.00
2016,07,06,02,54,0.00
2016,07,06,02,55,0.00
2016,07,06,02,56,0.00
2016,07,06,02,57,0.00
2016,07,06,02,58,0.00
2016,07,06,02,59,0.00
2016,07,06,03,00,0.00
2016,07,06,03,01,0.00
2016,07,06,03,02,0.00
2016,07,06,03,03,0.00
2016,07,06,03,04,0.00
2016,07,06,03,05,0.00
2016,07,06,03,06,0.00
2016,07,06,03,07,0.00
2016,07,06,03,08,0.00
2016,07,06,03,09,0.00
2016,07,06,03,10,0.00
2016,07,06,03,11,0.00
2016,07,06,03,12,0.00
2016,07,06,03,13,0.00
2016,07,06,03,14,0.00
2016,07,06,03,15,0.00
2016,07,06,03,16,0.00
2016,07,06,03,17,0.00
2016,07,06,03,18,0.00
2016,07,06,03,19,0.00
2016,07,06,03,20,0.00
2016,07,06,03,21,0.00
2016,07,06,03,22,0.00
2016,07,06,03,23,0.00
2016,07,06,03,24,0.00
2016,07,06,03,25,0.00
2016,07,06,03,26,0.00
2016,07,06,03,27,0.00
2016,07,06,03,28,0.00
2016,07,06,03,29,0.00
2016,07,06,03,30,0.00
2016,07,06,03,31,0.00
2016,07,06,03,32,0.00
2016,07,06,03,33,0.00
2016,07,06,03,34,0.00
2016,07,06,03,35,0.00
2016,07,06,03,36,0.00
2016,07,06,03,37,0.00
2016,07,06,03,38,0.00
2016,07,06,03,39,0.00
2016,07,06,03,40,0.00
2016,07,06,03,41,0.00
2016,07,06,03,42,0.00
2016,07,06,03,43,0.00
2016,07,06,03,44,0.00
2016,07,06,03,45,0.00
2016,07,06,03,46,0.00
2016,07,06,03,47,0.00
2016,07,06,03,48,0.00
2016,07,06,03,49,0.00
2016,07,06,03,50,0.00
2016,07,06,03,51,0.00
2016,07,06,03,52,0.00
2016,07,06,03,53,0.00
2016,07,06,03,54,0.00
2016,07,06,03,55,0.00
2016,07,06,03,56,0.00
2016,07,06,03,57,0.00
2016,07,06,03,58,0.00
2016,07,06,03,59,0.00
2016,07,06,04,00,0.00
2016,07,06,04,01,0.00
2016,07,06,04,02,0.00
2016,07,06,04,03,0.00
2016,07,06,04,04,0.00
2016,07,06,04,05,0.00
2016,07,06,04,06,0.00
2016,07,06,04,07,0.00
2016,07,06,04,08,0.00
2016,07,06,04,09,0.00
2016,07,06,04,10,0.00
2016,07,06,04,11,0.00
2016,07,06,04,12,0.00
2016,07,06,04,13,0.00
2016,07,06,04,14,0.00
2016,07,06,04,15,0.00
2016,07,06,04,16,0.00
2016,07,06,04,17,0.00
2016,07,06,04,18,0.00
2016,07,06,04,19,0.00
2016,07,06,04,20,0.00
2016,07,06,04,21,0.00
2016,07,06,04,22,0.00
2016,07,06,04,23,0.00
2016,07,06,04,24,0.00
2016,07,06,04,25,0.00
2016,07,06,04,26,0.00
2016,07,06,04,27,0.00
2016,07,06,04,28,0.00
2016,07,06,04,29,0.00
2016,07,06,04,30,0.00
2016,07,06,04,31,0.00
2016,07,06,04,32,0.00
2016,07,06,04,33,0.00
2016,07,06,04,34,0.00
2016,07,06,04,35,0.00
2016,07,06,04,36,0.00
2016,07,06,04,37,0.00
2016,07,06,04,38,0.00
2016,07,06,04,39,0.00
2016,07,06,04,40,0.00
2016,07,06,04,41,0.00
2016,07,06,04,42,0.00
2016,07,06,04,43,0.00
2016,07,06,04,44,0.00
2016,07,06,04,45,0.00
2016,07,06,04,46,0.00
2016,07,06,04,47,0.00
2016,07,06,04,48,0.00
2016,07,06,04,49,0.00
2016,07,06,04,50,0.00
2016,07,06,04,51,0.00
2016,07,06,04,52,0.00
2016,07,06,04,53,0.00
2016,07,06,04,54,0.00
2016,07,06,04,55,0.00
2016,07,06,04,56,0.00
2016,07,06,04,57,0.00
2016,07,06,04,58,0.00
2016,07,06,04,59,0.00
2016,07,06,05,00,0.00
2016,07,06,05,01,0.00
2016,07,06,05,02,0.00
2016,07,06,05,03,0.00
2016,07,06,05,04,0.00
2016,07,06,05,05,0.00
2016,07,06,05,06,0.00
2016,07,06,05,07,0.00
2016,07,06,05,08,0.00
2016,07,06,05,09,0.00
2016,07,06,05,10,0.00
2016,07,06,05,11,0.00
2016,07,06,05,12,0.00
2016,07,06,05,13,0.00
2016,07,06,05,14,0.00
2016,07,06,05,15,0.00
2016,07,06,05,16,0.00
2016,07,06,05,17,0.00
2016,07,06,05,18,0.00
2016,07,06,05,19,0.00
2016,07,06,05,20,0.00
2016,07,06,05,21,4.30
2016,07,06,05,22,5.00
2016,07,06,05,23,5.00
2016,07,06,05,24,5.00
2016,07,06,05,25,6.00
2016,07,06,05,26,7.00
2016,07,06,05,27,7.00
2016,07,06,05,28,7.00
2016,07,06,05,29,9.00
2016,07,06,05,30,9.50
2016,07,06,05,31,11.00
2016,07,06,05,32,11.00
2016,07,06,05,33,11.00
2016,07,06,05,34,11.70
2016,07,06,05,35,13.70
2016,07,06,05,36,14.00
2016,07,06,05,37,14.50
2016,07,06,05,38,16.80
2016,07,06,05,39,18.50
2016,07,06,05,40,19.00
2016,07,06,05,41,20.40
2016,07,06,05,42,22.70
2016,07,06,05,43,25.00
2016,07,06,05,44,25.20
2016,07,06,05,45,26.80
2016,07,06,05,46,28.00
2016,07,06,05,47,29.20
2016,07,06,05,48,31.50
2016,07,06,05,49,32.90
2016,07,06,05,50,35.30
2016,07,06,05,51,37.50
2016,07,06,05,52,39.00
2016,07,06,05,53,39.50
2016,07,06,05,54,40.00
2016,07,06,05,55,40.00
2016,07,06,05,56,40.00
2016,07,06,05,57,39.90
2016,07,06,05,58,39.00
2016,07,06,05,59,39.00
2016,07,06,06,00,39.00
2016,07,06,06,01,39.00
2016,07,06,06,02,39.00
2016,07,06,06,03,39.00
2016,07,06,06,04,39.10
2016,07,06,06,05,40.50
2016,07,06,06,06,42.00
2016,07,06,06,07,43.00
2016,07,06,06,08,45.20
2016,07,06,06,09,46.70
2016,07,06,06,10,47.00
2016,07,06,06,11,50.20
2016,07,06,06,12,59.00
2016,07,06,06,13,61.20
2016,07,06,06,14,59.00
2016,07,06,06,15,59.20
2016,07,06,06,16,65.30
2016,07,06,06,17,68.80
2016,07,06,06,18,67.90
2016,07,06,06,19,57.50
2016,07,06,06,20,55.20
2016,07,06,06,21,55.00
2016,07,06,06,22,57.30
2016,07,06,06,23,58.00
2016,07,06,06,24,59.70
2016,07,06,06,25,62.00
2016,07,06,06,26,62.20
2016,07,06,06,27,62.60
2016,07,06,06,28,62.50
2016,07,06,06,29,63.00
2016,07,06,06,30,63.00
2016,07,06,06,31,64.70
2016,07,06,06,32,67.30
2016,07,06,06,33,69.20
2016,07,06,06,34,70.70
2016,07,06,06,35,73.00
2016,07,06,06,36,75.20
2016,07,06,06,37,76.80
2016,07,06,06,38,77.00
2016,07,06,06,39,79.20
2016,07,06,06,40,81.00
2016,07,06,06,41,82.10
2016,07,06,06,42,85.00
2016,07,06,06,43,87.20
2016,07,06,06,44,89.50
2016,07,06,06,45,92.60
2016,07,06,06,46,95.00
2016,07,06,06,47,96.70
2016,07,06,06,48,102.80
2016,07,06,06,49,106.50
2016,07,06,06,50,110.20
2016,07,06,06,51,114.60
2016,07,06,06,52,116.00
2016,07,06,06,53,120.10
2016,07,06,06,54,121.00
2016,07,06,06,55,120.60
2016,07,06,06,56,120.00
2016,07,06,06,57,136.10
2016,07,06,06,58,134.00
2016,07,06,06,59,136.00
2016,07,06,07,00,129.20
2016,07,06,07,01,125.80
2016,07,06,07,02,134.00
2016,07,06,07,03,128.70
2016,07,06,07,04,125.50
2016,07,06,07,05,158.90
2016,07,06,07,06,192.20
2016,07,06,07,07,135.80
2016,07,06,07,08,115.30
2016,07,06,07,09,111.50
2016,07,06,07,10,124.00
2016,07,06,07,11,169.40
2016,07,06,07,12,213.00
2016,07,06,07,13,224.60
2016,07,06,07,14,222.80
2016,07,06,07,15,215.70
2016,07,06,07,16,178.10
2016,07,06,07,17,181.00
2016,07,06,07,18,216.80
2016,07,06,07,19,216.00
2016,07,06,07,20,216.00
2016,07,06,07,21,220.10
2016,07,06,07,22,222.00
2016,07,06,07,23,226.40
2016,07,06,07,24,211.60
2016,07,06,07,25,213.60
2016,07,06,07,26,228.40
2016,07,06,07,27,225.60
2016,07,06,07,28,222.60
2016,07,06,07,29,245.00
2016,07,06,07,30,249.10
2016,07,06,07,31,243.80
2016,07,06,07,32,237.00
2016,07,06,07,33,256.60
2016,07,06,07,34,266.60
2016,07,06,07,35,271.10
2016,07,06,07,36,272.50
2016,07,06,07,37,275.50
2016,07,06,07,38,280.60
2016,07,06,07,39,284.30
2016,07,06,07,40,287.20
2016,07,06,07,41,289.80
2016,07,06,07,42,294.50
2016,07,06,07,43,300.20
2016,07,06,07,44,306.70
2016,07,06,07,45,315.80
2016,07,06,07,46,318.70
2016,07,06,07,47,315.70
2016,07,06,07,48,327.10
2016,07,06,07,49,329.10
2016,07,06,07,50,313.80
2016,07,06,07,51,288.80
2016,07,06,07,52,290.00
2016,07,06,07,53,269.40
2016,07,06,07,54,263.10
2016,07,06,07,55,315.00
2016,07,06,07,56,284.40
2016,07,06,07,57,291.20
2016,07,06,07,58,328.60
2016,07,06,07,59,340.70
2016,07,06,08,00,330.50
2016,07,06,08,01,332.10
2016,07,06,08,02,335.70
2016,07,06,08,03,332.00
2016,07,06,08,04,332.00
2016,07,06,08,05,334.30
2016,07,06,08,06,344.80
2016,07,06,08,07,357.00
2016,07,06,08,08,363.00
2016,07,06,08,09,358.00
2016,07,06,08,10,351.70
2016,07,06,08,11,352.50
2016,07,06,08,12,359.00
2016,07,06,08,13,359.50
2016,07,06,08,14,363.70
2016,07,06,08,15,372.10
2016,07,06,08,16,380.20
2016,07,06,08,17,381.40
2016,07,06,08,18,385.50
2016,07,06,08,19,386.20
2016,07,06,08,20,385.00
2016,07,06,08,21,389.30
2016,07,06,08,22,397.30
2016,07,06,08,23,409.70
2016,07,06,08,24,413.00
2016,07,06,08,25,411.80
2016,07,06,08,26,406.20
2016,07,06,08,27,401.10
2016,07,06,08,28,397.80
2016,07,06,08,29,398.50
2016,07,06,08,30,402.40
2016,07,06,08,31,404.40
2016,07,06,08,32,408.50
2016,07,06,08,33,410.00
2016,07,06,08,34,413.60
2016,07,06,08,35,420.20
2016,07,06,08,36,424.30
2016,07,06,08,37,426.70
2016,07,06,08,38,431.70
2016,07,06,08,39,436.80
2016,07,06,08,40,439.00
2016,07,06,08,41,443.50
2016,07,06,08,42,453.60
2016,07,06,08,43,460.80
2016,07,06,08,44,469.80
2016,07,06,08,45,474.60
2016,07,06,08,46,471.00
2016,07,06,08,47,470.20
2016,07,06,08,48,469.00
2016,07,06,08,49,469.00
2016,07,06,08,50,484.90
2016,07,06,08,51,496.20
2016,07,06,08,52,501.30
2016,07,06,08,53,503.00
2016,07,06,08,54,503.40
2016,07,06,08,55,504.00
2016,07,06,08,56,504.00
2016,07,06,08,57,346.50
2016,07,06,08,58,294.00
2016,07,06,08,59,526.70
2016,07,06,09,00,531.00
2016,07,06,09,01,531.00
2016,07,06,09,02,525.30
2016,07,06,09,03,543.80
2016,07,06,09,04,547.90
2016,07,06,09,05,561.10
2016,07,06,09,06,577.80
2016,07,06,09,07,584.20
2016,07,06,09,08,586.40
2016,07,06,09,09,588.00
2016,07,06,09,10,583.90
2016,07,06,09,11,580.50
2016,07,06,09,12,577.40
2016,07,06,09,13,573.00
2016,07,06,09,14,573.50
2016,07,06,09,15,577.70
2016,07,06,09,16,587.00
2016,07,06,09,17,556.00
2016,07,06,09,18,510.50
2016,07,06,09,19,422.80
2016,07,06,09,20,483.80
2016,07,06,09,21,401.00
2016,07,06,09,22,420.30
2016,07,06,09,23,452.00
2016,07,06,09,24,553.60
2016,07,06,09,25,571.30
2016,07,06,09,26,559.00
2016,07,06,09,27,542.00
2016,07,06,09,28,448.80
2016,07,06,09,29,463.50
2016,07,06,09,30,425.00
2016,07,06,09,31,347.20
2016,07,06,09,32,310.80
2016,07,06,09,33,328.20
2016,07,06,09,34,330.00
2016,07,06,09,35,331.70
2016,07,06,09,36,339.90
2016,07,06,09,37,341.90
2016,07,06,09,38,329.50
2016,07,06,09,39,331.80
2016,07,06,09,40,344.30
2016,07,06,09,41,319.30
2016,07,06,09,42,370.80
2016,07,06,09,43,313.00
2016,07,06,09,44,313.00
2016,07,06,09,45,313.00
2016,07,06,09,46,313.00
2016,07,06,09,47,313.00
2016,07,06,09,48,449.00
2016,07,06,09,49,499.00
2016,07,06,09,50,511.10
2016,07,06,09,51,581.00
2016,07,06,09,52,623.60
2016,07,06,09,53,562.90
2016,07,06,09,54,502.40
2016,07,06,09,55,575.10
2016,07,06,09,56,522.00
2016,07,06,09,57,544.50
2016,07,06,09,58,565.70
2016,07,06,09,59,545.00
2016,07,06,10,00,677.00
2016,07,06,10,01,754.70
2016,07,06,10,02,808.90
2016,07,06,10,03,802.00
2016,07,06,10,04,802.00
2016,07,06,10,05,802.00
2016,07,06,10,06,764.80
2016,07,06,10,07,740.50
2016,07,06,10,08,735.70
2016,07,06,10,09,677.30
2016,07,06,10,10,717.00
2016,07,06,10,11,693.90
2016,07,06,10,12,672.50
2016,07,06,10,13,689.00
2016,07,06,10,14,694.20
2016,07,06,10,15,696.00
2016,07,06,10,16,704.30
2016,07,06,10,17,716.70
2016,07,06,10,18,722.00
2016,07,06,10,19,722.00
2016,07,06,10,20,732.30
2016,07,06,10,21,737.20
2016,07,06,10,22,658.40
2016,07,06,10,23,658.00
2016,07,06,10,24,671.00
2016,07,06,10,25,701.40
2016,07,06,10,26,651.00
2016,07,06,10,27,675.30
2016,07,06,10,28,632.50
2016,07,06,10,29,610.00
2016,07,06,10,30,610.00
2016,07,06,10,31,603.80
2016,07,06,10,32,585.00
2016,07,06,10,33,585.00
2016,07,06,10,34,625.30
2016,07,06,10,35,650.00
2016,07,06,10,36,543.80
2016,07,06,10,37,555.50
2016,07,06,10,38,621.00
2016,07,06,10,39,621.00
2016,07,06,10,40,621.00
2016,07,06,10,41,621.00
2016,07,06,10,42,447.30
2016,07,06,10,43,478.60
2016,07,06,10,44,536.40
2016,07,06,10,45,833.00
2016,07,06,10,46,833.00
2016,07,06,10,47,783.30
2016,07,06,10,48,685.60
2016,07,06,10,49,657.00
2016,07,06,10,50,657.00
2016,07,06,10,51,657.00
2016,07,06,10,52,657.00
2016,07,06,10,53,657.00
2016,07,06,10,54,445.50
2016,07,06,10,55,229.70
2016,07,06,10,56,244.40
2016,07,06,10,57,250.00
2016,07,06,10,58,250.00
2016,07,06,10,59,386.60
2016,07,06,11,00,805.40
2016,07,06,11,01,791.50
2016,07,06,11,02,795.00
2016,07,06,11,03,612.20
2016,07,06,11,04,564.70
2016,07,06,11,05,539.50
2016,07,06,11,06,371.00
2016,07,06,11,07,361.20
2016,07,06,11,08,365.50
2016,07,06,11,09,372.90
2016,07,06,11,10,374.00
2016,07,06,11,11,371.40
2016,07,06,11,12,373.00
2016,07,06,11,13,476.80
2016,07,06,11,14,777.80
2016,07,06,11,15,770.00
2016,07,06,11,16,779.00
2016,07,06,11,17,508.20
2016,07,06,11,18,426.90
2016,07,06,11,19,440.20
2016,07,06,11,20,453.40
2016,07,06,11,21,470.10
2016,07,06,11,22,481.50
2016,07,06,11,23,496.10
2016,07,06,11,24,498.30
2016,07,06,11,25,513.10
2016,07,06,11,26,569.40
2016,07,06,11,27,896.00
2016,07,06,11,28,880.80
2016,07,06,11,29,860.50
2016,07,06,11,30,865.00
2016,07,06,11,31,906.00
2016,07,06,11,32,919.00
2016,07,06,11,33,854.60
2016,07,06,11,34,452.00
2016,07,06,11,35,547.20
2016,07,06,11,36,703.00
2016,07,06,11,37,419.30
2016,07,06,11,38,252.80
2016,07,06,11,39,255.00
2016,07,06,11,40,255.00
2016,07,06,11,41,255.00
2016,07,06,11,42,258.40
2016,07,06,11,43,264.50
2016,07,06,11,44,267.60
2016,07,06,11,45,270.50
2016,07,06,11,46,278.90
2016,07,06,11,47,329.30
2016,07,06,11,48,355.00
2016,07,06,11,49,433.90
2016,07,06,11,50,563.00
2016,07,06,11,51,445.10
2016,07,06,11,52,342.20
2016,07,06,11,53,307.90
2016,07,06,11,54,306.00
2016,07,06,11,55,373.30
2016,07,06,11,56,547.20
2016,07,06,11,57,504.20
2016,07,06,11,58,511.20
2016,07,06,11,59,534.00
2016,07,06,12,00,534.00
2016,07,06,12,01,534.00
2016,07,06,12,02,534.00
2016,07,06,12,03,534.00
2016,07,06,12,04,534.00
2016,07,06,12,05,534.00
2016,07,06,12,06,943.70
2016,07,06,12,07,1074.00
2016,07,06,12,08,417.20
2016,07,06,12,09,437.30
2016,07,06,12,10,454.00
2016,07,06,12,11,454.00
2016,07,06,12,12,454.00
2016,07,06,12,13,454.80
2016,07,06,12,14,374.60
2016,07,06,12,15,348.00
2016,07,06,12,16,348.00
2016,07,06,12,17,348.00
2016,07,06,12,18,624.00
2016,07,06,12,19,900.00
2016,07,06,12,20,789.00
2016,07,06,12,21,752.00
2016,07,06,12,22,583.70
2016,07,06,12,23,502.80
2016,07,06,12,24,468.40
2016,07,06,12,25,531.30
2016,07,06,12,26,611.70
2016,07,06,12,27,584.40
2016,07,06,12,28,562.30
2016,07,06,12,29,404.00
2016,07,06,12,30,404.00
2016,07,06,12,31,555.20
2016,07,06,12,32,789.00
2016,07,06,12,33,789.00
2016,07,06,12,34,789.00
2016,07,06,12,35,789.00
2016,07,06,12,36,789.00
2016,07,06,12,37,795.20
2016,07,06,12,38,814.00
2016,07,06,12,39,680.00
2016,07,06,12,40,512.60
2016,07,06,12,41,489.00
2016,07,06,12,42,489.00
2016,07,06,12,43,380.40
2016,07,06,12,44,385.80
2016,07,06,12,45,394.00
2016,07,06,12,46,383.10
2016,07,06,12,47,397.40
2016,07,06,12,48,411.00
2016,07,06,12,49,478.90
2016,07,06,12,50,452.00
2016,07,06,12,51,575.80
2016,07,06,12,52,947.00
2016,07,06,12,53,1015.30
2016,07,06,12,54,1062.30
2016,07,06,12,55,1053.00
2016,07,06,12,56,346.80
2016,07,06,12,57,250.00
2016,07,06,12,58,250.00
2016,07,06,12,59,250.00
2016,07,06,13,00,250.00
2016,07,06,13,01,314.20
2016,07,06,13,02,348.00
2016,07,06,13,03,348.00
2016,07,06,13,04,441.10
2016,07,06,13,05,1013.20
2016,07,06,13,06,1053.00
2016,07,06,13,07,1060.00
2016,07,06,13,08,1060.00
2016,07,06,13,09,1060.00
2016,07,06,13,10,1056.80
2016,07,06,13,11,967.00
2016,07,06,13,12,902.40
2016,07,06,13,13,694.50
2016,07,06,13,14,640.00
2016,07,06,13,15,640.00
2016,07,06,13,16,632.90
2016,07,06,13,17,631.00
2016,07,06,13,18,631.00
2016,07,06,13,19,774.20
2016,07,06,13,20,1150.00
2016,07,06,13,21,797.50
2016,07,06,13,22,492.00
2016,07,06,13,23,548.60
2016,07,06,13,24,564.00
2016,07,06,13,25,524.90
2016,07,06,13,26,587.00
2016,07,06,13,27,587.00
2016,07,06,13,28,587.00
2016,07,06,13,29,493.10
2016,07,06,13,30,437.20
2016,07,06,13,31,479.90
2016,07,06,13,32,485.00
2016,07,06,13,33,485.00
2016,07,06,13,34,485.00
2016,07,06,13,35,485.00
2016,07,06,13,36,485.00
2016,07,06,13,37,485.00
2016,07,06,13,38,373.60
2016,07,06,13,39,403.10
2016,07,06,13,40,396.80
2016,07,06,13,41,375.90
2016,07,06,13,42,373.00
2016,07,06,13,43,317.10
2016,07,06,13,44,316.40
2016,07,06,13,45,339.50
2016,07,06,13,46,393.60
2016,07,06,13,47,722.00
2016,07,06,13,48,722.00
2016,07,06,13,49,1005.00
2016,07,06,13,50,1288.00
2016,07,06,13,51,1288.00
2016,07,06,13,52,1288.00
2016,07,06,13,53,1146.00
2016,07,06,13,54,1146.00
2016,07,06,13,55,1146.00
2016,07,06,13,56,1146.00
2016,07,06,13,57,1146.00
2016,07,06,13,58,676.40
2016,07,06,13,59,486.80
2016,07,06,14,00,476.80
2016,07,06,14,01,494.90
2016,07,06,14,02,547.70
2016,07,06,14,03,574.90
2016,07,06,14,04,573.00
2016,07,06,14,05,573.00
2016,07,06,14,06,573.00
2016,07,06,14,07,573.00
2016,07,06,14,08,573.00
2016,07,06,14,09,573.00
2016,07,06,14,10,666.20
2016,07,06,14,11,747.00
2016,07,06,14,12,747.00
2016,07,06,14,13,747.00
2016,07,06,14,14,747.00
2016,07,06,14,15,747.00
2016,07,06,14,16,747.00
2016,07,06,14,17,747.00
2016,07,06,14,18,747.00
2016,07,06,14,19,555.10
2016,07,06,14,20,494.00
2016,07,06,14,21,494.00
2016,07,06,14,22,498.50
2016,07,06,14,23,512.00
2016,07,06,14,24,512.00
2016,07,06,14,25,512.00
2016,07,06,14,26,512.00
2016,07,06,14,27,512.00
2016,07,06,14,28,512.00
2016,07,06,14,29,512.00
2016,07,06,14,30,512.00
2016,07,06,14,31,512.00
2016,07,06,14,32,404.60
2016,07,06,14,33,345.00
2016,07,06,14,34,345.00
2016,07,06,14,35,421.30
2016,07,06,14,36,913.20
2016,07,06,14,37,953.00
2016,07,06,14,38,915.80
2016,07,06,14,39,908.50
2016,07,06,14,40,919.90
2016,07,06,14,41,908.70
2016,07,06,14,42,904.20
2016,07,06,14,43,901.00
2016,07,06,14,44,890.20
2016,07,06,14,45,887.40
2016,07,06,14,46,903.00
2016,07,06,14,47,912.00
2016,07,06,14,48,911.10
2016,07,06,14,49,911.00
2016,07,06,14,50,847.30
2016,07,06,14,51,712.70
2016,07,06,14,52,759.00
2016,07,06,14,53,759.00
2016,07,06,14,54,802.20
2016,07,06,14,55,873.90
2016,07,06,14,56,875.30
2016,07,06,14,57,870.10
2016,07,06,14,58,853.00
2016,07,06,14,59,856.60
2016,07,06,15,00,869.00
2016,07,06,15,01,872.40
2016,07,06,15,02,872.00
2016,07,06,15,03,871.40
2016,07,06,15,04,869.10
2016,07,06,15,05,872.00
2016,07,06,15,06,868.40
2016,07,06,15,07,862.40
2016,07,06,15,08,854.70
2016,07,06,15,09,850.90
2016,07,06,15,10,797.70
2016,07,06,15,11,829.90
2016,07,06,15,12,847.40
2016,07,06,15,13,858.00
2016,07,06,15,14,858.00
2016,07,06,15,15,858.00
2016,07,06,15,16,870.60
2016,07,06,15,17,872.70
2016,07,06,15,18,863.90
2016,07,06,15,19,858.90
2016,07,06,15,20,851.20
2016,07,06,15,21,847.00
2016,07,06,15,22,847.00
2016,07,06,15,23,846.60
2016,07,06,15,24,834.70
2016,07,06,15,25,834.00
2016,07,06,15,26,837.00
2016,07,06,15,27,817.90
2016,07,06,15,28,764.60
2016,07,06,15,29,745.00
2016,07,06,15,30,841.80
2016,07,06,15,31,853.00
2016,07,06,15,32,853.00
2016,07,06,15,33,676.70
2016,07,06,15,34,401.80
2016,07,06,15,35,380.00
2016,07,06,15,36,739.90
2016,07,06,15,37,837.00
2016,07,06,15,38,810.00
2016,07,06,15,39,810.00
2016,07,06,15,40,810.00
2016,07,06,15,41,810.00
2016,07,06,15,42,810.00
2016,07,06,15,43,810.00
2016,07,06,15,44,843.40
2016,07,06,15,45,843.00
2016,07,06,15,46,835.10
2016,07,06,15,47,830.00
2016,07,06,15,48,825.30
2016,07,06,15,49,818.40
2016,07,06,15,50,816.20
2016,07,06,15,51,816.00
2016,07,06,15,52,815.70
2016,07,06,15,53,814.00
2016,07,06,15,54,815.90
2016,07,06,15,55,818.00
2016,07,06,15,56,817.00
2016,07,06,15,57,817.00
2016,07,06,15,58,817.00
2016,07,06,15,59,799.40
2016,07,06,16,00,794.60
2016,07,06,16,01,791.00
2016,07,06,16,02,792.00
2016,07,06,16,03,796.30
2016,07,06,16,04,734.40
2016,07,06,16,05,690.10
2016,07,06,16,06,687.00
2016,07,06,16,07,651.70
2016,07,06,16,08,559.00
2016,07,06,16,09,559.00
2016,07,06,16,10,683.10
2016,07,06,16,11,752.00
2016,07,06,16,12,796.90
2016,07,06,16,13,803.30
2016,07,06,16,14,806.10
2016,07,06,16,15,809.00
2016,07,06,16,16,809.00
2016,07,06,16,17,809.00
2016,07,06,16,18,809.00
2016,07,06,16,19,237.00
2016,07,06,16,20,179.00
2016,07,06,16,21,227.60
2016,07,06,16,22,353.80
2016,07,06,16,23,352.00
2016,07,06,16,24,352.00
2016,07,06,16,25,517.80
2016,07,06,16,26,646.40
2016,07,06,16,27,656.00
2016,07,06,16,28,555.60
2016,07,06,16,29,298.70
2016,07,06,16,30,315.70
2016,07,06,16,31,350.80
2016,07,06,16,32,366.00
2016,07,06,16,33,339.00
2016,07,06,16,34,383.00
2016,07,06,16,35,382.10
2016,07,06,16,36,370.50
2016,07,06,16,37,351.40
2016,07,06,16,38,343.50
2016,07,06,16,39,328.90
2016,07,06,16,40,314.20
2016,07,06,16,41,313.40
2016,07,06,16,42,316.00
2016,07,06,16,43,315.60
2016,07,06,16,44,316.60
2016,07,06,16,45,332.80
2016,07,06,16,46,350.10
2016,07,06,16,47,354.70
2016,07,06,16,48,403.00
2016,07,06,16,49,403.00
2016,07,06,16,50,403.00
2016,07,06,16,51,645.70
2016,07,06,16,52,856.00
2016,07,06,16,53,856.00
2016,07,06,16,54,722.80
2016,07,06,16,55,693.00
2016,07,06,16,56,693.00
2016,07,06,16,57,693.00
2016,07,06,16,58,693.00
2016,07,06,16,59,693.00
2016,07,06,17,00,647.00
2016,07,06,17,01,635.00
2016,07,06,17,02,635.00
2016,07,06,17,03,542.30
2016,07,06,17,04,292.70
2016,07,06,17,05,285.10